CHH7049 ZJHK-ZUGY

Flight info

Callsign CHH7049
Flight time 1h 28m
Altitude 27600
Route AGTEL9XD AGTEL W71 LH R339 BHY W159 IVPUB W120 ENKUS DCT JW W2 SJG B330 ELKAL ELKAL6W
Aircraft A20N/M-SDE2E3FGHIRWXY/LB1

Departure

Time 2026-04-30 19:16
Airport Haikou Meilan International Airport (ZJHK)

Arrival

Time 2026-04-30 20:44
Airport Guiyang Longdongbao International Airport (ZUGY)
Time Latitude Longitude Altitude Speed Heading
2026-04-30 19:08 19.94963 110.45793 72 ft 0 kts 90°
2026-04-30 19:10 19.94963 110.45813 72 ft 4 kts 89°
2026-04-30 19:11 19.94970 110.45882 71 ft 11 kts 51°
2026-04-30 19:11 19.95143 110.45965 69 ft 15 kts 359°
2026-04-30 19:11 19.95203 110.46023 67 ft 13 kts 90°
2026-04-30 19:12 19.95204 110.46136 65 ft 17 kts 90°
2026-04-30 19:12 19.95202 110.46280 59 ft 21 kts 91°
2026-04-30 19:12 19.95205 110.46451 55 ft 23 kts 90°
2026-04-30 19:13 19.95207 110.46811 52 ft 24 kts 90°
2026-04-30 19:13 19.95207 110.47166 52 ft 23 kts 90°
2026-04-30 19:13 19.95207 110.47337 54 ft 22 kts 89°
2026-04-30 19:14 19.95218 110.47474 56 ft 11 kts 54°
2026-04-30 19:14 19.95296 110.47495 55 ft 13 kts 359°
2026-04-30 19:14 19.95376 110.47495 55 ft 8 kts 359°
2026-04-30 19:14 19.95380 110.47447 54 ft 9 kts 266°
2026-04-30 19:15 19.95384 110.47273 53 ft 54 kts 269°
2026-04-30 19:15 19.95374 110.45531 133 ft 165 kts 270°
2026-04-30 19:15 19.95354 110.44299 626 ft 170 kts 267°
2026-04-30 19:16 19.95257 110.43044 1237 ft 173 kts 263°
2026-04-30 19:16 19.95077 110.41785 1840 ft 176 kts 259°
2026-04-30 19:16 19.95197 110.39192 2887 ft 189 kts 279°
2026-04-30 19:17 19.95329 110.37727 3274 ft 207 kts 272°
2026-04-30 19:17 19.95356 110.34379 4138 ft 245 kts 269°
2026-04-30 19:17 19.95346 110.32561 4968 ft 247 kts 270°
2026-04-30 19:18 19.95340 110.29554 6377 ft 248 kts 277°
2026-04-30 19:18 19.96064 110.27311 7380 ft 251 kts 310°
2026-04-30 19:18 19.97490 110.26240 8085 ft 257 kts 340°
2026-04-30 19:19 19.99273 110.26065 8876 ft 257 kts
2026-04-30 19:19 20.01022 110.26171 9644 ft 256 kts
2026-04-30 19:19 20.04729 110.26382 10619 ft 275 kts
2026-04-30 19:20 20.06665 110.26504 11264 ft 278 kts
2026-04-30 19:20 20.08596 110.26627 11897 ft 280 kts
2026-04-30 19:20 20.12552 110.26884 12939 ft 294 kts
2026-04-30 19:21 20.14654 110.27017 13216 ft 310 kts
2026-04-30 19:21 20.19206 110.27308 13754 ft 342 kts
2026-04-30 19:22 20.24142 110.27628 14242 ft 370 kts
2026-04-30 19:22 20.32312 110.28158 14895 ft 409 kts
2026-04-30 19:23 20.41175 110.28735 15607 ft 437 kts
2026-04-30 19:24 20.47261 110.29137 16443 ft 442 kts
2026-04-30 19:24 20.50382 110.29340 16851 ft 445 kts
2026-04-30 19:24 20.56568 110.29743 17614 ft 450 kts
2026-04-30 19:25 20.66046 110.30360 18696 ft 458 kts 360°
2026-04-30 19:26 20.72479 110.30781 19389 ft 464 kts
2026-04-30 19:26 20.78964 110.31207 20054 ft 469 kts
2026-04-30 19:26 20.82222 110.31420 20386 ft 471 kts
2026-04-30 19:27 20.88808 110.31854 21042 ft 475 kts
2026-04-30 19:27 20.95483 110.32295 21667 ft 480 kts
2026-04-30 19:28 20.98809 110.32514 21957 ft 482 kts
2026-04-30 19:28 21.05556 110.32893 22520 ft 486 kts 359°
2026-04-30 19:29 21.12077 110.31593 22987 ft 476 kts 329°
2026-04-30 19:29 21.14768 110.29570 23249 ft 470 kts 314°
2026-04-30 19:30 21.19875 110.20792 24237 ft 462 kts 296°
2026-04-30 19:30 21.22889 110.14759 24847 ft 463 kts 296°
2026-04-30 19:31 21.25954 110.08647 25499 ft 463 kts 296°
2026-04-30 19:31 21.27464 110.05641 25825 ft 463 kts 296°
2026-04-30 19:31 21.30513 109.99565 26339 ft 465 kts 296°
2026-04-30 19:32 21.32062 109.96478 26561 ft 467 kts 296°
2026-04-30 19:32 21.33592 109.93429 26789 ft 469 kts 296°
2026-04-30 19:32 21.35131 109.90358 27019 ft 469 kts 296°
2026-04-30 19:32 21.36666 109.87295 27239 ft 470 kts 296°
2026-04-30 19:33 21.38223 109.84185 27455 ft 472 kts 296°
2026-04-30 19:33 21.39787 109.81058 27556 ft 474 kts 296°
2026-04-30 19:33 21.41332 109.77969 27562 ft 474 kts 296°
2026-04-30 19:33 21.42893 109.74847 27566 ft 474 kts 296°
2026-04-30 19:34 21.44446 109.71736 27566 ft 474 kts 296°
2026-04-30 19:34 21.46004 109.68613 27567 ft 474 kts 296°
2026-04-30 19:34 21.49098 109.62405 27568 ft 474 kts 297°
2026-04-30 19:35 21.50656 109.59276 27569 ft 474 kts 297°
2026-04-30 19:35 21.52197 109.56181 27570 ft 474 kts 297°
2026-04-30 19:35 21.53758 109.53043 27571 ft 474 kts 297°
2026-04-30 19:35 21.55298 109.49947 27573 ft 473 kts 297°
2026-04-30 19:36 21.57051 109.46925 27553 ft 476 kts 308°
2026-04-30 19:36 21.59454 109.44542 27564 ft 480 kts 324°
2026-04-30 19:36 21.65766 109.42156 27585 ft 488 kts 351°
2026-04-30 19:37 21.69142 109.41727 27579 ft 488 kts 352°
2026-04-30 19:37 21.72524 109.41311 27578 ft 488 kts 352°
2026-04-30 19:37 21.75881 109.40894 27578 ft 488 kts 352°
2026-04-30 19:37 21.79255 109.40469 27579 ft 488 kts 352°
2026-04-30 19:38 21.82658 109.40037 27580 ft 487 kts 352°
2026-04-30 19:38 21.86033 109.39603 27581 ft 487 kts 352°
2026-04-30 19:38 21.89391 109.39170 27581 ft 487 kts 352°
2026-04-30 19:38 21.92767 109.38733 27581 ft 486 kts 352°
2026-04-30 19:39 21.96105 109.38301 27582 ft 486 kts 352°
2026-04-30 19:39 21.99469 109.37865 27583 ft 486 kts 352°
2026-04-30 19:39 22.02829 109.37429 27582 ft 486 kts 352°
2026-04-30 19:39 22.06201 109.36993 27582 ft 486 kts 352°
2026-04-30 19:40 22.09530 109.36560 27582 ft 485 kts 352°
2026-04-30 19:40 22.12888 109.36124 27581 ft 486 kts 352°
2026-04-30 19:40 22.16297 109.35681 27581 ft 486 kts 352°
2026-04-30 19:40 22.19675 109.35240 27584 ft 485 kts 352°
2026-04-30 19:41 22.23028 109.34809 27580 ft 485 kts 352°
2026-04-30 19:41 22.26368 109.34583 27582 ft 486 kts 357°
2026-04-30 19:41 22.29759 109.34679 27583 ft 488 kts
2026-04-30 19:41 22.33151 109.35111 27584 ft 489 kts
2026-04-30 19:42 22.36525 109.35735 27585 ft 489 kts
2026-04-30 19:42 22.39872 109.36401 27587 ft 488 kts
2026-04-30 19:42 22.43194 109.37071 27589 ft 487 kts
2026-04-30 19:42 22.46542 109.37742 27591 ft 487 kts
2026-04-30 19:43 22.49852 109.38403 27594 ft 487 kts
2026-04-30 19:43 22.53201 109.39068 27595 ft 487 kts
2026-04-30 19:43 22.56518 109.39724 27593 ft 487 kts
2026-04-30 19:44 22.63182 109.41038 27593 ft 487 kts
2026-04-30 19:44 22.66546 109.41703 27591 ft 487 kts
2026-04-30 19:44 22.69893 109.42363 27589 ft 487 kts
2026-04-30 19:44 22.73225 109.43020 27590 ft 487 kts
2026-04-30 19:45 22.76555 109.43676 27586 ft 486 kts
2026-04-30 19:45 22.79874 109.44330 27587 ft 485 kts
2026-04-30 19:45 22.83182 109.44983 27585 ft 485 kts
2026-04-30 19:45 22.86532 109.45646 27585 ft 485 kts
2026-04-30 19:46 22.89830 109.46298 27586 ft 484 kts
2026-04-30 19:46 22.93170 109.46960 27585 ft 485 kts
2026-04-30 19:46 22.96486 109.47617 27582 ft 485 kts
2026-04-30 19:46 22.99804 109.48275 27583 ft 484 kts
2026-04-30 19:47 23.03133 109.48935 27581 ft 484 kts
2026-04-30 19:47 23.05343 109.49372 27582 ft 484 kts
2026-04-30 19:47 23.09773 109.50253 27586 ft 484 kts
2026-04-30 19:47 23.13079 109.50909 27589 ft 485 kts
2026-04-30 19:48 23.16400 109.51571 27590 ft 485 kts
2026-04-30 19:48 23.19702 109.52227 27592 ft 485 kts
2026-04-30 19:48 23.23050 109.52893 27594 ft 485 kts
2026-04-30 19:48 23.26343 109.53549 27596 ft 485 kts
2026-04-30 19:49 23.29666 109.54211 27597 ft 485 kts
2026-04-30 19:49 23.36313 109.55537 27590 ft 484 kts
2026-04-30 19:49 23.39647 109.56203 27588 ft 484 kts
2026-04-30 19:50 23.42975 109.56867 27585 ft 484 kts
2026-04-30 19:50 23.46280 109.57528 27587 ft 485 kts
2026-04-30 19:50 23.49615 109.58195 27583 ft 485 kts
2026-04-30 19:50 23.52932 109.58858 27584 ft 485 kts
2026-04-30 19:51 23.56257 109.59524 27582 ft 485 kts
2026-04-30 19:51 23.59569 109.60188 27583 ft 485 kts
2026-04-30 19:51 23.62890 109.60854 27586 ft 485 kts
2026-04-30 19:51 23.66204 109.61517 27583 ft 485 kts
2026-04-30 19:52 23.69521 109.62180 27583 ft 485 kts
2026-04-30 19:52 23.72844 109.62845 27587 ft 485 kts
2026-04-30 19:52 23.76145 109.63505 27586 ft 484 kts
2026-04-30 19:52 23.79473 109.64171 27587 ft 484 kts
2026-04-30 19:53 23.82774 109.64831 27586 ft 484 kts
2026-04-30 19:53 23.86107 109.65500 27584 ft 485 kts
2026-04-30 19:53 23.89440 109.66169 27583 ft 485 kts
2026-04-30 19:53 23.92760 109.66836 27586 ft 485 kts
2026-04-30 19:54 23.96080 109.67503 27585 ft 485 kts
2026-04-30 19:54 23.99423 109.68176 27584 ft 485 kts
2026-04-30 19:54 24.02727 109.68841 27584 ft 485 kts
2026-04-30 19:54 24.06020 109.69504 27588 ft 485 kts
2026-04-30 19:55 24.09380 109.70182 27589 ft 484 kts
2026-04-30 19:55 24.12688 109.70847 27592 ft 484 kts
2026-04-30 19:55 24.15974 109.71510 27599 ft 484 kts
2026-04-30 19:55 24.19307 109.72183 27598 ft 484 kts
2026-04-30 19:56 24.22622 109.72854 27600 ft 484 kts
2026-04-30 19:56 24.25941 109.73524 27600 ft 484 kts
2026-04-30 19:56 24.29280 109.74198 27601 ft 484 kts
2026-04-30 19:56 24.32579 109.74866 27599 ft 484 kts
2026-04-30 19:57 24.35909 109.75540 27601 ft 484 kts
2026-04-30 19:57 24.39201 109.76207 27600 ft 484 kts
2026-04-30 19:57 24.42546 109.76884 27599 ft 484 kts
2026-04-30 19:57 24.45873 109.77559 27598 ft 484 kts
2026-04-30 19:58 24.49161 109.78225 27601 ft 484 kts
2026-04-30 19:58 24.52464 109.78896 27602 ft 485 kts
2026-04-30 19:58 24.55806 109.79575 27600 ft 485 kts
2026-04-30 19:58 24.59124 109.80250 27601 ft 484 kts
2026-04-30 19:59 24.62446 109.80927 27606 ft 484 kts
2026-04-30 19:59 24.65701 109.81782 27609 ft 486 kts 13°
2026-04-30 19:59 24.72046 109.84518 27610 ft 490 kts 24°
2026-04-30 20:00 24.75040 109.86242 27610 ft 491 kts 25°
2026-04-30 20:00 24.78058 109.88041 27613 ft 491 kts 26°
2026-04-30 20:00 24.81072 109.89852 27611 ft 491 kts 26°
2026-04-30 20:00 24.84063 109.91646 27611 ft 491 kts 26°
2026-04-30 20:01 24.90069 109.95229 27615 ft 492 kts 25°
2026-04-30 20:01 24.93078 109.97019 27615 ft 492 kts 26°
2026-04-30 20:01 24.96108 109.98820 27611 ft 493 kts 25°
2026-04-30 20:02 25.02427 110.01510 27611 ft 485 kts 11°
2026-04-30 20:02 25.05730 110.02197 27612 ft 481 kts
2026-04-30 20:03 25.12401 110.02958 27614 ft 481 kts
2026-04-30 20:03 25.15721 110.03297 27614 ft 480 kts
2026-04-30 20:03 25.19086 110.03647 27613 ft 480 kts
2026-04-30 20:03 25.22411 110.04002 27614 ft 480 kts
2026-04-30 20:04 25.25700 110.04359 27615 ft 480 kts
2026-04-30 20:04 25.29063 110.04726 27615 ft 481 kts
2026-04-30 20:04 25.32380 110.05090 27615 ft 482 kts
2026-04-30 20:05 25.38993 110.04932 27604 ft 471 kts 341°
2026-04-30 20:05 25.41973 110.03498 27612 ft 465 kts 326°
2026-04-30 20:05 25.46638 109.98668 27626 ft 459 kts 310°
2026-04-30 20:06 25.48793 109.96048 27625 ft 459 kts 310°
2026-04-30 20:06 25.50936 109.93445 27621 ft 459 kts 310°
2026-04-30 20:06 25.53072 109.90852 27621 ft 459 kts 310°
2026-04-30 20:06 25.55227 109.88241 27623 ft 459 kts 310°
2026-04-30 20:07 25.57400 109.85608 27622 ft 460 kts 310°
2026-04-30 20:07 25.59547 109.83007 27622 ft 460 kts 310°
2026-04-30 20:07 25.63852 109.77790 27621 ft 460 kts 310°
2026-04-30 20:08 25.66028 109.75150 27620 ft 460 kts 310°
2026-04-30 20:08 25.68162 109.72558 27616 ft 460 kts 310°
2026-04-30 20:08 25.70334 109.69918 27616 ft 460 kts 311°
2026-04-30 20:08 25.72461 109.67333 27614 ft 459 kts 310°
2026-04-30 20:09 25.74597 109.64703 27606 ft 459 kts 308°
2026-04-30 20:09 25.76487 109.61820 27608 ft 457 kts 301°
2026-04-30 20:09 25.79126 109.55453 27606 ft 456 kts 287°
2026-04-30 20:10 25.80927 109.48746 27605 ft 456 kts 286°
2026-04-30 20:10 25.81814 109.45354 27603 ft 456 kts 286°
2026-04-30 20:10 25.82698 109.41966 27602 ft 456 kts 286°
2026-04-30 20:11 25.84458 109.35242 27601 ft 457 kts 286°
2026-04-30 20:11 25.85347 109.31852 27604 ft 458 kts 286°
2026-04-30 20:11 25.86236 109.28458 27602 ft 457 kts 286°
2026-04-30 20:12 25.88004 109.21699 27604 ft 457 kts 286°
2026-04-30 20:12 25.88884 109.18332 27602 ft 457 kts 286°
2026-04-30 20:12 25.89764 109.14964 27600 ft 457 kts 286°
2026-04-30 20:13 25.90643 109.11593 27601 ft 457 kts 286°
2026-04-30 20:13 25.91531 109.08179 27600 ft 457 kts 286°
2026-04-30 20:13 25.92414 109.04788 27601 ft 457 kts 286°
2026-04-30 20:13 25.93294 109.01449 27598 ft 457 kts 286°
2026-04-30 20:14 25.94195 108.98070 27598 ft 458 kts 286°
2026-04-30 20:14 25.95097 108.94686 27599 ft 457 kts 286°
2026-04-30 20:14 25.96006 108.91275 27600 ft 457 kts 286°
2026-04-30 20:14 25.96906 108.87888 27602 ft 458 kts 286°
2026-04-30 20:15 25.97806 108.84494 27603 ft 459 kts 286°
2026-04-30 20:15 25.98693 108.81142 27604 ft 459 kts 286°
2026-04-30 20:15 25.99594 108.77735 27606 ft 460 kts 286°
2026-04-30 20:15 26.00497 108.74318 27610 ft 460 kts 286°
2026-04-30 20:16 26.01399 108.70913 27610 ft 459 kts 286°
2026-04-30 20:16 26.02297 108.67535 27611 ft 460 kts 287°
2026-04-30 20:16 26.03202 108.64135 27608 ft 459 kts 287°
2026-04-30 20:16 26.04106 108.60741 27605 ft 458 kts 287°
2026-04-30 20:17 26.05002 108.57368 27603 ft 458 kts 287°
2026-04-30 20:17 26.05899 108.53986 27597 ft 458 kts 286°
2026-04-30 20:17 26.06796 108.50598 27599 ft 458 kts 286°
2026-04-30 20:17 26.07698 108.47186 27598 ft 459 kts 286°
2026-04-30 20:18 26.08580 108.43792 27596 ft 459 kts 285°
2026-04-30 20:18 26.09346 108.40334 27602 ft 458 kts 283°
2026-04-30 20:18 26.09948 108.36899 27605 ft 458 kts 280°
2026-04-30 20:18 26.10416 108.33363 27611 ft 459 kts 278°
2026-04-30 20:19 26.10833 108.29882 27617 ft 459 kts 278°
2026-04-30 20:19 26.11249 108.26350 27621 ft 458 kts 278°
2026-04-30 20:19 26.11659 108.22855 27623 ft 459 kts 278°
2026-04-30 20:19 26.12073 108.19333 27625 ft 460 kts 278°
2026-04-30 20:20 26.12487 108.15802 27620 ft 461 kts 278°
2026-04-30 20:20 26.12897 108.12302 27618 ft 461 kts 277°
2026-04-30 20:20 26.13313 108.08740 27613 ft 461 kts 277°
2026-04-30 20:20 26.13725 108.05206 27608 ft 461 kts 277°
2026-04-30 20:21 26.14129 108.01729 27606 ft 461 kts 278°
2026-04-30 20:21 26.14540 107.98185 27603 ft 461 kts 278°
2026-04-30 20:21 26.14951 107.94643 27603 ft 460 kts 277°
2026-04-30 20:21 26.15355 107.91137 27602 ft 460 kts 278°
2026-04-30 20:22 26.15763 107.87600 27601 ft 460 kts 277°
2026-04-30 20:22 26.16163 107.84118 27602 ft 460 kts 277°
2026-04-30 20:22 26.16571 107.80577 27607 ft 460 kts 277°
2026-04-30 20:22 26.16978 107.77038 27614 ft 461 kts 277°
2026-04-30 20:23 26.17382 107.73527 27610 ft 460 kts 277°
2026-04-30 20:23 26.17788 107.69984 27610 ft 460 kts 277°
2026-04-30 20:23 26.18187 107.66492 27608 ft 460 kts 278°
2026-04-30 20:23 26.18591 107.62958 27607 ft 460 kts 278°
2026-04-30 20:24 26.18991 107.59439 27606 ft 461 kts 277°
2026-04-30 20:24 26.19392 107.55914 27604 ft 461 kts 277°
2026-04-30 20:24 26.19796 107.52334 27605 ft 461 kts 277°
2026-04-30 20:24 26.20192 107.48816 27604 ft 461 kts 277°
2026-04-30 20:25 26.20981 107.41777 27607 ft 461 kts 277°
2026-04-30 20:25 26.21377 107.38227 27607 ft 461 kts 277°
2026-04-30 20:26 26.22163 107.31177 27608 ft 461 kts 277°
2026-04-30 20:26 26.22948 107.24092 27608 ft 460 kts 277°
2026-04-30 20:26 26.23340 107.20543 27190 ft 462 kts 277°
2026-04-30 20:27 26.24110 107.13555 25476 ft 455 kts 277°
2026-04-30 20:27 26.24867 107.06653 22143 ft 451 kts 276°
2026-04-30 20:28 26.25609 106.99824 21142 ft 444 kts 276°
2026-04-30 20:28 26.26350 106.93082 19994 ft 438 kts 277°
2026-04-30 20:29 26.27609 106.86477 18734 ft 431 kts 284°
2026-04-30 20:30 26.30438 106.77186 16864 ft 419 kts 288°
2026-04-30 20:30 26.34058 106.68546 14950 ft 416 kts 313°
2026-04-30 20:31 26.42178 106.65895 13026 ft 427 kts
2026-04-30 20:32 26.50789 106.67661 11501 ft 407 kts
2026-04-30 20:32 26.56238 106.68739 10810 ft 388 kts
2026-04-30 20:33 26.58857 106.69253 10612 ft 374 kts
2026-04-30 20:33 26.63821 106.70225 10329 ft 348 kts
2026-04-30 20:33 26.66175 106.70686 10200 ft 335 kts
2026-04-30 20:34 26.70587 106.71549 10038 ft 309 kts
2026-04-30 20:34 26.74830 106.72375 9346 ft 309 kts
2026-04-30 20:35 26.76943 106.72784 9001 ft 308 kts
2026-04-30 20:35 26.79055 106.73194 8680 ft 306 kts
2026-04-30 20:35 26.83075 106.73988 8619 ft 277 kts
2026-04-30 20:36 26.84878 106.74643 8533 ft 276 kts 34°
2026-04-30 20:36 26.86140 106.76226 8366 ft 274 kts 70°
2026-04-30 20:36 26.85876 106.80079 7849 ft 245 kts 118°
2026-04-30 20:37 26.85290 106.81872 7650 ft 241 kts 114°
2026-04-30 20:37 26.84820 106.83659 7424 ft 237 kts 115°
2026-04-30 20:37 26.84003 106.85156 7161 ft 219 kts 147°
2026-04-30 20:37 26.82694 106.85832 6963 ft 202 kts 176°
2026-04-30 20:38 26.81315 106.85847 6982 ft 200 kts 187°
2026-04-30 20:38 26.79933 106.85628 7047 ft 202 kts 191°
2026-04-30 20:38 26.78506 106.85343 6981 ft 205 kts 191°
2026-04-30 20:39 26.75828 106.84802 6933 ft 192 kts 191°
2026-04-30 20:39 26.74512 106.84540 6957 ft 192 kts 191°
2026-04-30 20:39 26.73180 106.84277 6977 ft 192 kts 191°
2026-04-30 20:40 26.70533 106.83760 6576 ft 192 kts 191°
2026-04-30 20:40 26.69250 106.83509 6421 ft 182 kts 191°
2026-04-30 20:40 26.68012 106.83267 6157 ft 176 kts 190°
2026-04-30 20:41 26.65725 106.82820 5676 ft 154 kts 190°
2026-04-30 20:41 26.64707 106.82621 5446 ft 142 kts 190°
2026-04-30 20:41 26.63777 106.82439 5253 ft 133 kts 190°
2026-04-30 20:41 26.62856 106.82259 5102 ft 133 kts 189°
2026-04-30 20:42 26.61942 106.82081 4944 ft 134 kts 189°
2026-04-30 20:42 26.61007 106.81915 4759 ft 135 kts 188°
2026-04-30 20:42 26.59141 106.81517 4430 ft 137 kts 189°
2026-04-30 20:43 26.58201 106.81337 4241 ft 138 kts 187°
2026-04-30 20:43 26.57249 106.81163 4066 ft 140 kts 189°
2026-04-30 20:43 26.56291 106.80975 3893 ft 140 kts 189°
2026-04-30 20:44 26.54510 106.80627 3745 ft 92 kts 188°
2026-04-30 20:44 26.54062 106.80540 3745 ft 41 kts 191°
2026-04-30 20:44 26.53663 106.80434 3744 ft 15 kts 208°
2026-04-30 20:45 26.53489 106.80302 3744 ft 14 kts 216°
2026-04-30 20:45 26.53405 106.80238 3744 ft 14 kts 210°
2026-04-30 20:45 26.53308 106.80203 3744 ft 14 kts 190°
2026-04-30 20:46 26.53267 106.80065 3744 ft 13 kts 340°
2026-04-30 20:46 26.53328 106.80039 3744 ft 1 kts 301°
2026-04-30 20:47 26.53286 106.80004 3744 ft 7 kts 190°
2026-04-30 20:47 26.53222 106.79988 3744 ft 11 kts 198°
2026-04-30 20:48 26.53055 106.79866 3744 ft 17 kts 226°
2026-04-30 20:48 26.53070 106.79793 3744 ft 2 kts 358°
2026-04-30 20:48 26.53164 106.79802 3744 ft 19 kts
2026-04-30 20:48 26.53299 106.79827 3744 ft 23 kts
2026-04-30 20:49 26.53422 106.79851 3744 ft 12 kts 15°
2026-04-30 20:49 26.53534 106.79873 3744 ft 13 kts
2026-04-30 20:49 26.53663 106.79885 3744 ft 20 kts 328°
2026-04-30 20:50 26.53853 106.79852 3745 ft 23 kts
2026-04-30 20:50 26.54047 106.79891 3745 ft 26 kts 11°
2026-04-30 20:50 26.54218 106.79926 3745 ft 24 kts
2026-04-30 20:50 26.54272 106.79918 3745 ft 1 kts 312°
2026-04-30 20:51 26.54323 106.79875 3745 ft 11 kts 325°
2026-04-30 20:51 26.54348 106.79855 3745 ft 0 kts 326°